When you browse on this site, cookies collect data to enhance your experience and personalize the content and advertising you see.
Visit our Privacy Policy to learn more. By continuing to use the site, you agree to this use of cookies and data.
  • In Hungary
  • List of Countries
  • For 7 days
  • Water Temperature
  • Weather Map
  • News
  • Weather Widgets
  • user-avatar
    Login

    Hourly Weather Topkoe

    Today, 19 October, Saturday

    Time Temperature Precipitation Wind Pressure Humidity
    00:00 +10°C° 0 mm 0 mps 744 mmHg 90%
    01:00 +9°C° 0 mm 0 mps 744 mmHg 90%
    02:00 +9°C° 0 mm 0 mps 744 mmHg 91%
    03:00 +10°C° 0 mm 1 mps 744 mmHg 91%
    04:00 +10°C° 0 mm 1 mps 744 mmHg 91%
    05:00 +10°C° 0 mm 1 mps 744 mmHg 92%
    06:00 +10°C° 0 mm 1 mps 744 mmHg 91%
    07:00 +11°C° 0 mm 1 mps 745 mmHg 89%
    08:00 +10°C° 0 mm 2 mps 745 mmHg 88%
    09:00 +13°C° 0 mm 2 mps 745 mmHg 82%
    10:00 +14°C° 0 mm 2 mps 745 mmHg 76%
    11:00 +15°C° 0 mm 2 mps 745 mmHg 71%
    12:00 +16°C° 0 mm 2 mps 745 mmHg 69%
    13:00 +16°C° 0 mm 2 mps 745 mmHg 67%
    14:00 +16°C° 0 mm 2 mps 745 mmHg 65%
    15:00 +15°C° 0 mm 2 mps 745 mmHg 69%
    16:00 +14°C° 0 mm 2 mps 745 mmHg 73%
    17:00 +13°C° 0 mm 2 mps 745 mmHg 77%
    18:00 +13°C° 0 mm 2 mps 745 mmHg 78%
    19:00 +12°C° 0 mm 2 mps 745 mmHg 79%
    20:00 +12°C° 0 mm 2 mps 745 mmHg 80%
    21:00 +12°C° 0 mm 2 mps 745 mmHg 81%
    22:00 +12°C° 0 mm 2 mps 745 mmHg 82%
    23:00 +10°C° 0 mm 2 mps 745 mmHg 82%

    Tomorrow, 20 October, Sunday

    Time Temperature Precipitation Wind Pressure Humidity
    00:00 +10°C° 0 mm 2 mps 745 mmHg 83%
    01:00 +10°C° 0 mm 2 mps 746 mmHg 84%
    02:00 +10°C° 0 mm 2 mps 746 mmHg 85%
    03:00 +10°C° 0 mm 2 mps 746 mmHg 86%
    04:00 +9°C° 0 mm 2 mps 746 mmHg 88%
    05:00 +9°C° 0 mm 2 mps 746 mmHg 89%
    06:00 +10°C° 0 mm 2 mps 746 mmHg 87%
    07:00 +10°C° 0 mm 2 mps 746 mmHg 86%
    08:00 +12°C° 0 mm 2 mps 746 mmHg 85%
    09:00 +12°C° 0 mm 3 mps 746 mmHg 81%
    10:00 +13°C° 0 mm 3 mps 746 mmHg 77%
    11:00 +16°C° 0 mm 3 mps 746 mmHg 73%
    12:00 +16°C° 0 mm 3 mps 746 mmHg 71%
    13:00 +17°C° 0 mm 3 mps 746 mmHg 70%
    14:00 +17°C° 0 mm 3 mps 746 mmHg 68%
    15:00 +16°C° 0 mm 3 mps 746 mmHg 73%
    16:00 +14°C° 0 mm 3 mps 746 mmHg 78%
    17:00 +14°C° 0 mm 2 mps 746 mmHg 83%
    18:00 +13°C° 0 mm 2 mps 746 mmHg 84%
    19:00 +13°C° 0 mm 2 mps 746 mmHg 85%
    20:00 +12°C° 0 mm 3 mps 746 mmHg 86%
    21:00 +12°C° 0 mm 3 mps 746 mmHg 85%
    22:00 +11°C° 0 mm 3 mps 747 mmHg 85%
    23:00 +11°C° 0 mm 3 mps 747 mmHg 84%

    Day after tomorrow, 21 October, Monday

    Time Temperature Precipitation Wind Pressure Humidity
    00:00 +11°C° 0 mm 3 mps 747 mmHg 85%
    01:00 +11°C° 0 mm 3 mps 746 mmHg 85%
    02:00 +10°C° 0 mm 3 mps 746 mmHg 85%
    03:00 +10°C° 0 mm 3 mps 746 mmHg 86%
    04:00 +10°C° 0 mm 3 mps 746 mmHg 86%
    05:00 +10°C° 0 mm 3 mps 746 mmHg 86%
    06:00 +10°C° 0 mm 3 mps 746 mmHg 83%
    07:00 +11°C° 0 mm 4 mps 746 mmHg 79%
    08:00 +11°C° 0 mm 4 mps 746 mmHg 76%
    09:00 +13°C° 0 mm 4 mps 746 mmHg 70%
    10:00 +14°C° 0 mm 4 mps 746 mmHg 65%
    11:00 +16°C° 0 mm 5 mps 746 mmHg 60%
    12:00 +16°C° 0 mm 5 mps 746 mmHg 60%
    13:00 +16°C° 0 mm 5 mps 746 mmHg 59%
    14:00 +17°C° 0 mm 5 mps 746 mmHg 58%
    15:00 +17°C° 0 mm 4 mps 745 mmHg 63%
    16:00 +15°C° 0 mm 4 mps 745 mmHg 68%
    17:00 +13°C° 0 mm 4 mps 745 mmHg 72%
    18:00 +13°C° 0 mm 4 mps 745 mmHg 73%
    19:00 +13°C° 0 mm 4 mps 745 mmHg 75%
    20:00 +12°C° 0 mm 4 mps 745 mmHg 76%
    21:00 +12°C° 0 mm 3 mps 745 mmHg 78%
    22:00 +12°C° 0 mm 3 mps 745 mmHg 79%
    23:00 +11°C° 0 mm 3 mps 745 mmHg 80%

    22 October, Tuesday

    Time Temperature Precipitation Wind Pressure Humidity
    00:00 +11°C° 0 mm 3 mps 745 mmHg 81%
    01:00 +11°C° 0 mm 3 mps 745 mmHg 82%
    02:00 +10°C° 0 mm 3 mps 745 mmHg 83%
    03:00 +10°C° 0 mm 3 mps 745 mmHg 84%
    04:00 +10°C° 0 mm 3 mps 745 mmHg 84%
    05:00 +10°C° 0 mm 3 mps 745 mmHg 85%
    06:00 +10°C° 0 mm 3 mps 745 mmHg 83%
    07:00 +11°C° 0 mm 3 mps 745 mmHg 81%
    08:00 +11°C° 0 mm 3 mps 745 mmHg 79%
    09:00 +12°C° 0 mm 3 mps 745 mmHg 76%
    10:00 +14°C° 0 mm 2 mps 745 mmHg 73%
    11:00 +15°C° 0 mm 2 mps 745 mmHg 69%
    12:00 +16°C° 0 mm 3 mps 745 mmHg 68%
    13:00 +16°C° 0 mm 3 mps 745 mmHg 68%
    14:00 +17°C° 0 mm 3 mps 745 mmHg 67%
    15:00 +16°C° 0 mm 3 mps 745 mmHg 71%
    16:00 +15°C° 0 mm 2 mps 745 mmHg 75%
    17:00 +14°C° 0 mm 2 mps 745 mmHg 79%
    18:00 +14°C° 0 mm 2 mps 745 mmHg 80%
    19:00 +13°C° 0 mm 2 mps 745 mmHg 82%
    20:00 +13°C° 0 mm 2 mps 745 mmHg 83%
    21:00 +12°C° 0 mm 2 mps 745 mmHg 83%
    22:00 +12°C° 0 mm 2 mps 745 mmHg 83%
    23:00 +12°C° 0 mm 2 mps 744 mmHg 83%

    23 October, Wednesday

    Time Temperature Precipitation Wind Pressure Humidity
    00:00 +12°C° 0 mm 2 mps 744 mmHg 84%
    01:00 +12°C° 0 mm 2 mps 744 mmHg 84%
    02:00 +10°C° 0 mm 2 mps 744 mmHg 85%
    03:00 +10°C° 0 mm 2 mps 744 mmHg 86%
    04:00 +10°C° 0 mm 2 mps 744 mmHg 87%
    05:00 +10°C° 0 mm 3 mps 744 mmHg 88%
    06:00 +10°C° 0 mm 2 mps 744 mmHg 87%
    07:00 +12°C° 0 mm 2 mps 744 mmHg 85%
    08:00 +12°C° 0 mm 2 mps 744 mmHg 84%
    09:00 +13°C° 0 mm 2 mps 744 mmHg 80%
    10:00 +14°C° 0 mm 2 mps 744 mmHg 76%
    11:00 +16°C° 0 mm 2 mps 744 mmHg 72%
    12:00 +16°C° 0 mm 2 mps 744 mmHg 72%
    13:00 +16°C° 0 mm 3 mps 744 mmHg 72%
    14:00 +17°C° 0 mm 3 mps 744 mmHg 72%
    15:00 +16°C° 0 mm 2 mps 744 mmHg 76%
    16:00 +15°C° 0 mm 2 mps 744 mmHg 81%
    17:00 +14°C° 0 mm 2 mps 744 mmHg 86%
    18:00 +13°C° 0 mm 2 mps 744 mmHg 88%
    19:00 +13°C° 0 mm 2 mps 744 mmHg 89%
    20:00 +12°C° 0 mm 2 mps 744 mmHg 91%
    21:00 +12°C° 0 mm 1 mps 744 mmHg 92%
    22:00 +12°C° 0 mm 1 mps 744 mmHg 92%
    23:00 +12°C° 0 mm 1 mps 743 mmHg 92%

    24 October, Thursday

    Time Temperature Precipitation Wind Pressure Humidity
    00:00 +12°C° 0 mm 1 mps 743 mmHg 93%
    01:00 +12°C° 0 mm 1 mps 743 mmHg 93%
    02:00 +11°C° 0 mm 1 mps 743 mmHg 93%
    03:00 +11°C° 0 mm 1 mps 743 mmHg 94%
    04:00 +11°C° 0 mm 1 mps 743 mmHg 94%
    05:00 +11°C° 0 mm 1 mps 743 mmHg 95%
    06:00 +11°C° 0 mm 1 mps 743 mmHg 94%
    07:00 +12°C° 0 mm 1 mps 743 mmHg 93%
    08:00 +12°C° 0 mm 1 mps 743 mmHg 92%
    09:00 +13°C° 0 mm 1 mps 743 mmHg 90%
    10:00 +13°C° 0 mm 1 mps 744 mmHg 88%
    11:00 +13°C° 0 mm 2 mps 744 mmHg 86%
    12:00 +14°C° 0 mm 1 mps 744 mmHg 84%
    13:00 +14°C° 0 mm 1 mps 744 mmHg 83%
    14:00 +14°C° 0 mm 1 mps 744 mmHg 81%
    15:00 +13°C° 0 mm 1 mps 744 mmHg 84%
    16:00 +12°C° 0 mm 0 mps 744 mmHg 87%
    17:00 +11°C° 0 mm 0 mps 744 mmHg 90%
    18:00 +11°C° 0 mm 0 mps 744 mmHg 91%
    19:00 +10°C° 0 mm 0 mps 744 mmHg 92%
    20:00 +10°C° 0 mm 0 mps 744 mmHg 92%
    21:00 +10°C° 0 mm 0 mps 744 mmHg 93%
    22:00 +11°C° 0 mm 1 mps 744 mmHg 93%
    23:00 +10°C° 0 mm 1 mps 745 mmHg 94%
    Show more